User: anonymous   Login
Location: Meetinghouse Hill
(42.7686°N, 71.7752°W)
Time: 15:18:21
(UTC-05:00)
Language:

Iridium 34 - Orbit

View from above orbital plane
View from above orbital plane
View from above satellite
View from above satellite

Ground track
Ground track

The orbit data is extracted from the following two-line orbital elements,

1 24969U 97056E   17022.45205612 -.00000062  00000-0 -29073-4 0  9999
2 24969  86.3948  19.7359 0002017  85.1167 275.0259 14.34214275 11647
Epoch (UTC): 22 January 2017 10:50:57
Eccentricity: 0.0002017
inclination: 86.3948°
perigee height: 776 km
apogee height: 779 km
right ascension of ascending node: 19.7359°
argument of perigee: 85.1167°
revolutions per day: 14.34214275
mean anomaly at epoch: 275.0259°
orbit number at epoch: 1164

The dashed part of the orbit path shows where the satellite is in the earth's shadow,  

DLR